Location: Burjasot
(39.5167°N, 0.4167°W)
Time: 03:58:58
(UTC+02:00)

ISS - Pass Details

Date: 27 May 2019
Orbit: 407 x 419 km, 51.6° (Epoch: 26 June)

Event Time Altitude Azimuth Distance (km) Brightness Sun altitude
Rises 00:06:23 0° 315° (NW) 2,361 1.3 -23.9°
Reaches altitude 10° 00:09:12 10° 340° (NNW) 1,499 0.1 -24.1°
Maximum altitude 00:11:11 15° 16° (NNE) 1,244 -0.8 -24.3°
Enters shadow 00:12:27 13° 41° (NE) 1,352 -1.0 -24.4°
